This is the latest recevied weather packets stored in our database for station/object LZ1NAG-10. If no packets are shown the sender has not sent any weather packets the latest 10 day(s).
| Time | Temp. | Humidity | Pressure | Rain* | Wind** | Luminosity | Snow |
|---|---|---|---|---|---|---|---|
| 1777418129 | 11.11° C | 52% | 1021.5 hPa | - | - | - | - |
| 1777417229 | 10.56° C | 52% | 1021.4 hPa | - | - | - | - |
| 1777416329 | 10.56° C | 52% | 1021.5 hPa | - | - | - | - |
| 1777415429 | 10° C | 53% | 1021.6 hPa | - | - | - | - |
| 1777414528 | 9.44° C | 52% | 1021.5 hPa | - | - | - | - |
| 1777413628 | 9.44° C | 53% | 1021.6 hPa | - | - | - | - |
| 1777412728 | 9.44° C | 53% | 1021.6 hPa | - | - | - | - |
| 1777411828 | 9.44° C | 53% | 1021.6 hPa | - | - | - | - |
| 1777410928 | 9.44° C | 53% | 1021.5 hPa | - | - | - | - |
| 1777410028 | 9.44° C | 53% | 1021.3 hPa | - | - | - | - |
| 1777409128 | 9.44° C | 53% | 1021.3 hPa | - | - | - | - |
| 1777408228 | 10° C | 53% | 1021.2 hPa | - | - | - | - |
| 1777407327 | 10° C | 53% | 1021.3 hPa | - | - | - | - |
| 1777406427 | 10.56° C | 53% | 1021.2 hPa | - | - | - | - |
| 1777405527 | 10.56° C | 54% | 1021.4 hPa | - | - | - | - |
| 1777404626 | 10.56° C | 53% | 1021.5 hPa | - | - | - | - |
| 1777403726 | 11.11° C | 53% | 1021.4 hPa | - | - | - | - |
| 1777402826 | 11.11° C | 53% | 1021.5 hPa | - | - | - | - |
| 1777401926 | 11.67° C | 54% | 1021.2 hPa | - | - | - | - |
| 1777401026 | 12.22° C | 53% | 1021 hPa | - | - | - | - |
| 1777400126 | 12.78° C | 54% | 1020.8 hPa | - | - | - | - |
| 1777399225 | 13.33° C | 54% | 1020.5 hPa | - | - | - | - |
| 1777398325 | 14.44° C | 53% | 1020.6 hPa | - | - | - | - |
| 1777397425 | 14.44° C | 53% | 1020.5 hPa | - | - | - | - |
| 1777396525 | 15.56° C | 53% | 1020.2 hPa | - | - | - | - |
* Rain since midnight (hover to see other rain measurements)
** Current wind speed in m/s (hover to see current wind gust speed)